�������ċp�F�����K�X���j�^�v���󋵏��
Date,Time,�ċp�F�����K�X���j�^(cps),����,����(m/s)
2022/11/14,00:00,1.5,���k��,12.7
2022/11/14,00:10,1.6,���k��,10.3
2022/11/14,00:20,1.5,�k��,13.1
2022/11/14,00:30,1.5,�k��,8.6
2022/11/14,00:40,1.5,�k�k��,8.5
2022/11/14,00:50,1.6,�k��,7.7
2022/11/14,01:00,1.5,�k��,9.8
2022/11/14,01:10,1.5,�k��,13.1
2022/11/14,01:20,1.5,�k��,10.6
2022/11/14,01:30,1.5,���k��,9.4
2022/11/14,01:40,1.5,�k��,8.2
2022/11/14,01:50,1.5,�k��,8.2
2022/11/14,02:00,1.6,�k��,6.5
2022/11/14,02:10,1.4,���k��,7.5
2022/11/14,02:20,1.5,�k��,8.5
2022/11/14,02:30,1.5,�k��,9.7
2022/11/14,02:40,1.4,���k��,7.3
2022/11/14,02:50,1.5,�k��,9.4
2022/11/14,03:00,1.5,�k��,11.4
2022/11/14,03:10,1.5,�k��,9.3
2022/11/14,03:20,1.5,���k��,3.9
2022/11/14,03:30,1.4,�k��,6.4
2022/11/14,03:40,1.5,�k��,11.1
2022/11/14,03:50,1.5,�k��,13.1
2022/11/14,04:00,1.5,�k��,14.9
2022/11/14,04:10,1.4,�k�k��,13.3
2022/11/14,04:20,1.5,�k��,15.2
2022/11/14,04:30,1.5,�k�k��,10.2
2022/11/14,04:40,1.5,�k�k��,11.8
2022/11/14,04:50,1.4,�k�k��,8.4
2022/11/14,05:00,1.5,�k��,11.4
2022/11/14,05:10,1.4,�k��,13.0
2022/11/14,05:20,1.5,�k��,10.5
2022/11/14,05:30,1.5,�k��,8.8
2022/11/14,05:40,1.5,�k�k��,7.6
2022/11/14,05:50,1.5,�k�k��,6.4
2022/11/14,06:00,1.5,�k�k��,6.5
2022/11/14,06:10,1.5,�k�k��,7.7
2022/11/14,06:20,1.5,�k�k��,9.1
2022/11/14,06:30,1.5,�k�k��,7.8
2022/11/14,06:40,1.6,�k�k��,8.6
2022/11/14,06:50,1.6,�k��,8.2
2022/11/14,07:00,1.5,�k��,10.6
2022/11/14,07:10,1.5,�k��,11.6
2022/11/14,07:20,1.5,�k�k��,9.4
2022/11/14,07:30,1.5,�k�k��,9.1
2022/11/14,07:40,1.5,�k�k��,8.5
2022/11/14,07:50,1.6,�k�k��,6.9
2022/11/14,08:00,1.5,�k,7.6
2022/11/14,08:10,1.5,�k,7.2
2022/11/14,08:20,1.6,�k,7.2
2022/11/14,08:30,1.5,�k�k��,7.5
2022/11/14,08:40,1.5,�k,7.4
2022/11/14,08:50,1.4,�k,6.0
2022/11/14,09:00,1.5,�k,8.0
2022/11/14,09:10,1.4,�k,7.3
2022/11/14,09:20,1.5,�k,6.5
2022/11/14,09:30,1.5,�k,7.4
2022/11/14,09:40,1.4,�k�k��,8.3
2022/11/14,09:50,1.4,�k�k��,7.1
2022/11/14,10:00,1.5,�k�k��,7.3
2022/11/14,10:10,1.5,�k�k��,7.4
2022/11/14,10:20,1.6,�k�k��,5.5
2022/11/14,10:30,1.3,�k,6.7
2022/11/14,10:40,1.6,�k,7.1
2022/11/14,10:50,1.5,�k,7.2
2022/11/14,11:00,1.5,�k,8.0
2022/11/14,11:10,1.4,�k,6.7
2022/11/14,11:20,1.5,�k,7.8
2022/11/14,11:30,1.5,�k�k��,7.2
2022/11/14,11:40,1.5,�k�k��,7.7
2022/11/14,11:50,1.5,�k�k��,9.2
2022/11/14,12:00,1.5,�k�k��,8.9
2022/11/14,12:10,1.5,�k�k��,8.2
2022/11/14,12:20,1.5,�k�k��,9.0
2022/11/14,12:30,1.5,�k,9.3
2022/11/14,12:40,1.5,�k�k��,9.0
2022/11/14,12:50,1.5,�k�k��,9.3
2022/11/14,13:00,1.5,�k�k��,8.3
2022/11/14,13:10,1.5,�k�k��,7.9
2022/11/14,13:20,1.4,�k�k��,8.5
2022/11/14,13:30,1.5,�k�k��,8.8
2022/11/14,13:40,1.5,�k�k��,8.7
2022/11/14,13:50,1.6,�k�k��,8.5
2022/11/14,14:00,1.5,�k�k��,8.1
2022/11/14,14:10,1.5,�k�k��,8.4
2022/11/14,14:20,1.5,�k�k��,7.9
2022/11/14,14:30,1.4,�k�k��,6.9
2022/11/14,14:40,1.5,�k�k��,7.2
2022/11/14,14:50,1.5,�k�k��,6.6
2022/11/14,15:00,1.5,�k,6.1
2022/11/14,15:10,1.5,�k,6.2
2022/11/14,15:20,1.5,�k,5.9
2022/11/14,15:30,1.6,�k,4.6
2022/11/14,15:40,1.5,�k,4.0
2022/11/14,15:50,1.5,�k,3.9
2022/11/14,16:00,1.6,�k,4.2
2022/11/14,16:10,1.5,�k�k��,4.3
2022/11/14,16:20,1.5,�k,3.7
2022/11/14,16:30,1.5,�k,3.3
2022/11/14,16:40,1.5,�k,4.0
2022/11/14,16:50,1.5,�k,4.0
2022/11/14,17:00,1.5,�k,4.8
2022/11/14,17:10,1.5,�k,4.5
2022/11/14,17:20,1.5,�k�k��,3.9
2022/11/14,17:30,1.5,�k�k��,4.2
2022/11/14,17:40,1.6,�k�k��,3.8
2022/11/14,17:50,1.5,�k�k��,4.7
2022/11/14,18:00,1.5,�k�k��,4.6
2022/11/14,18:10,1.5,�k�k��,4.5
2022/11/14,18:20,1.5,�k��,4.3
2022/11/14,18:30,1.6,�k��,3.3
2022/11/14,18:40,1.5,�k��,3.8
2022/11/14,18:50,1.5,�k�k��,3.9
2022/11/14,19:00,1.4,�k��,4.0
2022/11/14,19:10,1.5,�k�k��,4.7
2022/11/14,19:20,1.4,�k��,4.7
2022/11/14,19:30,1.5,�k�k��,4.3
2022/11/14,19:40,1.5,�k��,5.3
2022/11/14,19:50,1.5,�k�k��,4.9
2022/11/14,20:00,1.5,�k�k��,4.5
2022/11/14,20:10,1.5,�k��,4.5
2022/11/14,20:20,1.5,�k��,5.2
2022/11/14,20:30,1.4,�k��,5.6
2022/11/14,20:40,1.5,�k��,4.6
2022/11/14,20:50,1.5,�k�k��,4.8
2022/11/14,21:00,1.5,�k��,4.8
2022/11/14,21:10,1.5,�k�k��,4.2
2022/11/14,21:20,1.5,�k�k��,4.8
2022/11/14,21:30,1.5,�k��,4.9
2022/11/14,21:40,1.5,�k�k��,5.4
2022/11/14,21:50,1.5,�k��,4.8
2022/11/14,22:00,1.4,�k�k��,4.3
2022/11/14,22:10,1.6,�k��,5.1
2022/11/14,22:20,1.4,�k��,5.5
2022/11/14,22:30,1.5,�k��,5.6
2022/11/14,22:40,1.5,�k��,6.5
2022/11/14,22:50,1.5,�k�k��,5.9
2022/11/14,23:00,1.5,�k�k��,5.5
2022/11/14,23:10,1.5,�k��,6.0
2022/11/14,23:20,1.4,�k�k��,5.5
2022/11/14,23:30,1.5,�k�k��,6.3
2022/11/14,23:40,1.5,�k��,5.8
2022/11/14,23:50,1.5,�k��,6.8
